This is the latest recevied weather packets stored in our database for station/object VK1KCM-5. If no packets are shown the sender has not sent any weather packets the latest 10 day(s).
| Time | Temp. | Humidity | Pressure | Rain* | Wind** | Luminosity | Snow |
|---|---|---|---|---|---|---|---|
| 1787476013 | 7.78° C | 87% | 1023.9 hPa | 0 mm | - | - | - |
| 1787475738 | 7.78° C | 87% | 1024.2 hPa | 0 mm | - | - | - |
| 1787475463 | 7.78° C | 86% | 1023.9 hPa | 0 mm | - | - | - |
| 1787475163 | 8.33° C | 85% | 1024.2 hPa | 0 mm | - | - | - |
| 1787474873 | 8.33° C | 84% | 1023.7 hPa | 0 mm | - | - | - |
| 1787474593 | 8.89° C | 82% | 1024 hPa | 0 mm | - | - | - |
| 1787474298 | 8.89° C | 81% | 1023.7 hPa | 0 mm | - | - | - |
| 1787474013 | 9.44° C | 81% | 1023.8 hPa | 0 mm | - | - | - |
| 1787473718 | 9.44° C | 81% | 1023.5 hPa | 0 mm | - | - | - |
| 1787473421 | 10° C | 81% | 1023.4 hPa | 0 mm | - | - | - |
| 1787473138 | 10° C | 81% | 1023.4 hPa | 0 mm | - | - | - |
| 1787472848 | 10° C | 80% | 1023.5 hPa | 0 mm | - | - | - |
| 1787472608 | 10.56° C | 79% | 1023.3 hPa | 0 mm | - | - | - |
| 1787472320 | 10.56° C | 79% | 1023.4 hPa | 0 mm | - | - | - |
| 1787472027 | 11.11° C | 78% | 1023 hPa | 0 mm | - | - | - |
| 1787471783 | 11.11° C | 78% | 1023 hPa | 0 mm | - | - | - |
| 1787471518 | 11.67° C | 77% | 1023 hPa | 0 mm | - | - | - |
| 1787471253 | 11.67° C | 76% | 1023 hPa | 0 mm | - | - | - |
| 1787470973 | 11.67° C | 75% | 1023 hPa | 0 mm | - | - | - |
| 1787470688 | 12.22° C | 74% | 1022.8 hPa | 0 mm | - | - | - |
| 1787470433 | 12.22° C | 73% | 1022.5 hPa | 0 mm | - | - | - |
| 1787470133 | 12.22° C | 72% | 1022.5 hPa | 0 mm | - | - | - |
| 1787469873 | 12.78° C | 70% | 1022.1 hPa | 0 mm | - | - | - |
| 1787469603 | 13.33° C | 68% | 1022.2 hPa | 0 mm | - | - | - |
| 1787469303 | 13.89° C | 66% | 1021.9 hPa | 0 mm | - | - | - |
* Rain latest hour (hover to see other rain measurements)
** Current wind speed in m/s (hover to see current wind gust speed)